Location: Gull Harbor
(47.1000°N, 122.9000°W)
Time: 21:54:09
(UTC-08:00)

Envisat - Pass Details

Date: 24 October 2019
Orbit: 764 x 766 km, 98.1° (Epoch: 21 November)

Event Time Altitude Azimuth Distance (km) Brightness Sun altitude
Rises 19:41:49 0° 183° (S) 3,220 6.3 -16.5°
Reaches altitude 10° 19:44:12 10° 189° (S) 2,298 5.6 -16.9°
Maximum altitude 19:49:03 45° 262° (W) 1,044 4.2 -17.8°
Drops below altitude 10° 19:53:56 10° 335° (NNW) 2,314 5.8 -18.6°
Sets 19:56:21 0° 341° (NNW) 3,245 6.5 -19.0°
